Temperature
23 25 25 25 26 26 24 23 22 22 22 22 21 21 21 22 21 21 22 22 21 21 21 21 21 21 20 20 20 20 20 19 19 19 18 18 18 17 17 17 17 17 16 16
23 25 25 25 25 25 25 24 23 23 22 22 22 22 21 21 21 21 21 21 21 21 21 21 21 21 20 20 20 20 20 19 19 19 18 18 18 17 17 17 17 16 16 16
21 23 24 23 24 24 24 23 23 22 21 21 20 21 20 21 21 21 21 21 21 21 21 20 20 20 20 20 20 19 19 19 19 18 18 18 18 17 17 17 16 16 16 16
19 22 22 22 23 24 24 23 22 22 21 21 21 21 21 22 21 21 21 21 21 21 20 20 20 20 20 20 19 19 19 19 19 18 18 18 17 17 17 17 16 16 16 16
18 20 21 22 23 23 23 22 22 21 21 21 21 21 20 21 21 21 21 21 21 21 20 20 20 20 20 20 19 19 19 19 18 18 18 18 17 17 17 16 16 16 16 16
18 20 21 21 23 24 22 20 21 21 20 20 21 19 19 20 21 21 21 20 20 20 20 20 20 19 19 19 19 19 19 18 18 18 18 18 17 17 17 16 16 16 16 16
18 19 20 21 22 23 21 20 21 21 21 20 20 20 20 20 21 21 21 20 20 20 20 20 19 19 19 19 19 18 18 18 18 17 17 17 17 17 17 16 16 16 16 15
17 18 19 20 21 20 20 21 21 21 21 21 21 21 20 20 20 20 20 20 20 20 19 19 19 19 19 18 18 18 18 18 17 17 17 17 17 16 16 16 16 16 15 15
16 17 18 20 21 22 22 21 21 21 21 21 20 20 20 20 20 20 20 19 19 19 19 19 18 18 18 18 18 18 17 17 17 17 17 16 16 16 16 16 16 15 15 15
16 17 18 20 21 21 22 21 21 21 21 21 20 20 19 19 19 19 19 19 19 19 19 18 18 18 18 18 17 17 17 17 17 16 16 16 16 16 15 15 15 15 15 15
15 16 18 19 20 20 21 21 21 20 21 20 20 19 19 19 19 19 19 19 18 18 18 18 18 17 17 17 17 17 17 17 16 16 16 16 16 15 15 15 15 15 15 15
15 16 15 17 19 19 20 20 20 19 19 19 19 19 19 19 19 18 18 18 18 18 18 18 17 17 17 17 16 16 16 16 16 16 15 15 15 15 15 14 14 14 14 14
17 18 18 18 18 19 19 19 19 19 19 18 18 18 18 18 18 18 18 18 18 18 17 17 17 17 17 17 16 16 16 16 16 15 15 15 15 15 15 14 14 14 14 14
18 17 17 17 18 18 18 18 18 18 18 18 18 17 17 17 17 17 17 17 17 17 17 17 17 17 16 16 16 16 16 15 15 15 15 15 15 15 14 14 14 14 14 14
17 17 17 17 17 18 18 18 18 17 17 17 17 17 17 17 17 17 17 17 17 17 17 16 16 16 16 16 16 15 15 15 15 15 15 15 14 14 14 14 14 14 14 13
17 17 17 17 17 17 17 17 17 16 16 16 16 16 16 16 16 16 16 16 16 16 16 16 16 16 16 15 15 15 15 15 15 15 14 14 14 14 14 14 13 13 13 13
16 16 16 16 16 16 16 16 16 16 16 16 16 16 16 16 16 16 15 15 15 16 15 15 15 15 15 15 15 15 15 15 14 14 14 14 14 14 13 13 13 13 13 13
16 16 16 16 15 15 15 15 16 15 15 15 15 15 15 15 15 15 15 15 15 15 15 15 15 15 15 15 15 15 14 14 14 14 14 14 13 13 13 13 13 13 13 12
16 15 15 15 15 15 15 15 15 15 15 15 14 15 15 15 15 15 15 15 15 14 14 14 14 15 15 14 14 14 14 14 14 14 14 13 13 13 13 13 13 13 12 12
15 15 15 15 15 15 14 14 14 14 15 14 14 14 14 14 14 14 14 14 14 14 14 14 14 14 14 14 14 14 14 14 14 13 13 13 13 13 13 13 12 12 12 12
15 15 14 14 14 14 14 14 14 14 14 14 14 14 14 14 14 14 14 14 14 14 14 14 14 14 14 14 13 13 13 13 13 13 13 13 13 13 12 12 12 12 12 12
14 14 14 14 14 14 14 14 14 14 14 14 14 14 14 14 14 14 14 14 13 13 13 13 13 13 13 13 13 13 13 13 13 13 13 13 13 12 12 12 12 12 12 11
14 14 14 14 13 13 13 13 13 13 13 13 13 13 13 13 13 14 13 13 13 13 13 13 13 13 13 13 13 13 13 13 12 12 12 12 12 12 12 12 12 11 11 11
13 13 13 13 13 13 13 13 13 13 13 13 13 13 13 13 13 13 13 13 13 13 13 12 12 13 12 12 13 12 12 12 12 12 12 12 12 12 12 11 11 11 11 11
13 13 13 13 13 12 12 13 13 13 13 13 13 13 13 13 13 13 13 12 12 12 12 12 12 12 12 12 12 12 12 12 12 12 12 11 11 11 11 11 11 10 10 10
13 13 12 12 12 12 12 12 12 12 12 13 12 12 12 12 12 12 12 12 12 12 12 12 12 12 12 12 12 12 11 11 11 11 11 11 11 11 10 10 10 10 10 9
12 12 12 12 12 12 12 12 12 12 12 12 12 12 12 12 12 12 12 12 12 11 11 11 11 11 11 11 11 11 11 11 11 11 11 10 10 10 10 10 9 9 9 9
Wind_Speed
5 4 1 1 4 1 2 6 7 8 9 10 10 10 9 8 9 10 9 8 7 6 6 6 7 6 6 6 6 7 8 8 7 6 5 5 4 4 3 3 4 3 3 2
1 1 3 3 4 1 1 2 4 6 5 6 7 7 7 8 10 10 9 8 7 6 6 6 7 7 7 6 7 7 8 8 7 6 5 5 5 4 3 3 3 3 3 2
1 2 4 4 3 1 1 1 6 5 6 7 8 9 9 9 10 9 9 8 8 8 7 6 6 7 8 7 7 7 7 7 7 6 6 6 6 4 4 4 3 3 3 3
2 3 3 7 2 4 5 3 2 5 8 11 10 8 7 9 10 9 9 8 7 6 6 5 5 5 5 6 7 7 7 7 7 7 7 6 5 5 5 4 4 4 4 4
4 3 3 4 2 1 4 2 2 5 9 9 10 8 4 3 7 9 8 8 7 6 6 5 5 5 6 6 5 6 6 7 7 7 7 6 6 6 5 4 4 4 3 4
4 4 4 5 6 1 7 1 4 4 8 9 8 5 4 4 6 7 7 7 6 6 6 6 5 5 6 5 5 5 5 6 6 6 6 7 7 5 4 4 4 4 3 4
4 3 4 5 5 3 3 5 2 3 6 8 5 6 6 6 6 6 6 6 7 7 6 6 5 6 6 4 4 4 3 4 4 4 4 5 5 4 4 4 3 3 3 3
3 3 5 5 2 3 5 3 3 4 6 7 8 8 8 8 7 6 5 5 6 6 5 4 5 7 6 4 4 3 4 3 2 2 2 2 3 3 3 4 4 4 3 4
4 4 4 1 3 3 4 4 3 5 6 9 8 7 7 6 6 5 5 5 4 6 5 3 4 6 6 5 4 4 4 3 3 2 2 2 3 3 2 3 3 4 4 4
1 1 2 4 4 4 5 5 5 6 7 8 7 6 6 6 5 5 4 5 5 5 5 4 3 4 5 4 4 5 4 3 3 3 3 3 3 3 4 4 4 4 4 4
1 1 5 6 6 3 4 6 6 5 5 7 8 6 6 6 6 5 4 3 4 5 5 4 3 3 3 4 5 4 3 3 3 3 3 3 3 3 4 5 6 6 5 4
3 3 2 3 3 2 6 6 6 6 4 4 4 5 4 4 5 5 5 4 4 4 4 4 4 4 3 4 4 5 4 4 3 3 3 3 3 2 3 4 5 6 7 6
3 2 2 1 1 3 5 5 6 7 6 5 3 4 4 3 3 3 4 4 4 4 3 3 4 4 4 4 5 5 5 5 4 4 4 4 4 4 3 3 3 2 4 5
3 3 2 1 1 3 4 4 6 7 6 6 4 3 3 2 2 2 2 3 3 3 2 3 3 4 5 5 6 6 5 6 5 4 4 4 5 5 4 4 2 2 2 3
0 1 3 2 2 3 3 5 6 5 4 4 4 4 3 3 2 1 1 2 2 2 2 2 3 4 4 4 5 5 5 5 4 4 4 4 4 4 4 4 4 3 2 2
2 3 2 3 2 2 3 4 5 3 3 3 3 3 2 2 2 1 1 2 2 2 3 3 4 4 3 3 3 3 4 5 4 4 3 3 3 4 4 4 4 4 4 3
3 3 3 3 3 3 3 3 4 3 3 2 1 1 2 2 2 1 1 1 2 2 3 3 4 3 3 3 4 3 3 3 4 3 4 4 4 4 4 4 4 4 5 5
4 4 5 4 4 3 3 3 3 4 3 1 0 1 1 2 2 2 3 1 0 1 2 3 3 2 3 3 3 2 2 3 3 4 4 4 4 4 4 4 5 5 3 3
5 5 4 4 3 3 2 2 2 2 2 3 2 1 1 2 2 3 2 1 1 2 4 3 3 2 2 3 3 2 3 3 3 4 4 5 4 4 4 4 4 4 4 3
4 4 4 3 3 3 3 2 1 2 2 2 1 1 1 3 3 2 1 2 3 4 4 3 2 2 3 3 3 3 3 3 3 3 3 3 4 4 3 4 4 4 4 4
4 4 4 3 2 2 3 2 2 2 1 2 1 2 3 4 2 1 1 2 4 3 3 3 2 2 2 3 3 2 3 3 3 3 3 3 3 3 3 3 3 3 3 3
3 3 3 3 2 1 2 2 3 3 2 1 2 2 2 2 2 1 2 3 3 3 2 2 2 3 3 3 2 2 2 2 2 2 2 3 3 3 3 3 2 2 2 3
2 3 3 2 2 2 2 2 2 2 1 2 2 2 2 2 2 1 3 3 2 2 1 2 3 3 3 1 1 1 1 1 2 2 2 2 2 2 2 3 3 3 2 2
2 3 2 2 3 3 2 1 1 1 1 1 1 1 1 0 2 2 2 1 2 1 1 2 3 2 1 0 0 0 1 0 0 1 1 1 1 1 1 2 2 1 1 2
3 3 3 3 3 2 1 1 0 0 0 1 2 2 1 1 1 1 0 1 2 2 2 3 3 2 1 1 1 1 0 0 0 0 0 0 0 0 1 1 1 1 2 2
2 2 2 3 2 2 1 1 1 1 1 1 2 2 1 1 1 1 1 1 2 2 2 2 2 2 1 2 1 1 1 1 1 1 0 0 1 1 1 1 2 2 2 2
3 3 2 2 1 1 1 1 1 0 1 1 1 2 2 2 2 2 1 1 1 2 2 2 2 2 2 2 2 2 1 1 1 1 1 1 1 1 1 2 2 2 2 2
Wind_Direction
189 208 159 280 296 262 162 177 179 195 180 194 188 178 167 150 139 132 129 132 135 140 146 151 153 159 162 171 172 171 169 172 177 179 178 169 167 169 170 168 171 166 158 169
23 36 51 351 325 276 187 148 148 143 189 197 170 144 142 145 140 141 145 145 148 150 150 154 164 169 166 171 173 167 169 174 173 171 171 171 175 173 176 183 182 170 179 185
258 323 35 316 286 111 96 106 145 166 200 157 138 153 163 156 150 152 151 145 155 160 159 162 169 170 173 174 166 162 169 172 170 170 174 185 188 183 191 199 191 185 196 189
121 80 196 240 266 123 113 65 92 137 142 150 155 157 153 147 143 145 146 147 154 160 158 158 162 165 163 157 158 164 170 175 177 182 186 190 189 195 202 199 195 199 203 197
118 142 254 292 301 213 126 44 15 121 130 130 123 93 74 123 134 143 148 147 150 155 150 145 145 150 145 146 155 165 177 184 187 187 188 192 199 204 201 193 200 204 199 198
126 139 203 257 291 235 105 29 324 113 132 135 121 131 198 178 137 134 136 140 144 138 127 134 145 142 136 151 155 177 189 190 188 187 190 199 204 201 195 195 206 202 210 212
150 174 240 272 296 62 116 222 262 128 141 140 151 173 166 145 130 135 132 133 136 133 138 150 149 138 138 148 174 190 174 169 179 188 196 201 198 193 189 193 192 200 220 230
147 168 236 281 64 130 198 183 140 123 134 130 130 131 133 137 140 134 127 125 132 136 143 153 151 144 151 177 190 158 140 145 163 176 190 193 191 193 188 186 194 212 225 242
180 203 239 260 136 165 145 125 120 123 133 127 121 126 131 135 137 140 142 146 147 144 141 151 161 156 163 188 170 151 149 163 182 186 200 192 190 191 196 202 204 218 221 233
72 341 360 38 59 72 92 102 108 115 127 128 125 129 133 141 143 144 154 154 151 140 145 160 171 169 175 180 168 160 172 188 192 194 208 206 198 192 198 211 215 220 222 229
63 339 14 14 11 30 80 91 94 96 113 133 132 137 145 146 150 150 147 144 147 153 164 172 171 180 184 174 165 173 189 204 208 210 213 215 216 217 215 219 213 210 219 215
214 223 173 281 318 48 92 95 100 95 79 87 123 141 142 149 151 155 153 143 140 151 161 175 180 189 193 181 176 182 198 207 212 222 225 217 213 242 252 240 246 225 224 218
189 185 169 216 13 71 95 101 105 102 101 94 85 111 124 143 149 151 153 148 157 165 168 175 185 202 209 197 188 195 206 211 213 216 214 211 209 214 242 281 301 277 255 237
117 87 53 32 89 78 89 101 105 97 93 97 92 97 112 109 118 138 163 174 170 163 171 183 193 213 212 200 196 205 211 215 213 214 208 206 212 218 218 217 237 274 278 257
189 156 202 196 115 80 89 104 102 97 95 91 98 102 114 122 134 155 166 165 146 140 172 198 218 237 225 202 201 208 213 219 216 218 216 216 217 220 222 217 221 231 239 267
125 87 102 109 89 63 87 106 108 109 104 109 110 119 143 150 133 120 139 142 143 194 223 221 233 241 222 195 197 210 223 226 214 208 212 219 217 218 220 217 217 222 228 230
133 142 139 117 87 72 72 89 107 110 92 93 115 135 133 122 99 69 291 242 193 209 218 217 233 234 207 197 197 211 226 229 219 213 213 220 222 222 219 214 216 221 230 224
161 169 162 149 134 107 76 70 90 103 101 81 59 135 148 167 187 214 242 246 349 314 269 254 242 231 224 214 205 204 204 206 207 212 216 220 221 217 216 218 220 223 231 226
138 145 144 139 135 128 121 93 76 92 95 89 86 106 209 223 229 234 224 179 173 263 274 276 254 229 222 221 205 201 203 209 214 222 221 220 221 222 218 217 219 218 214 213
137 139 133 133 127 127 132 128 98 94 108 103 66 4 300 269 251 239 200 214 237 235 246 254 244 239 235 227 213 210 212 214 217 221 219 218 221 223 220 221 219 214 214 217
130 132 129 131 144 152 151 146 137 144 154 143 166 249 262 265 251 203 171 269 274 257 250 245 251 258 252 237 222 219 218 224 225 218 218 216 216 215 213 214 216 217 215 220
134 134 136 142 147 147 151 147 154 160 169 211 233 244 257 268 274 267 251 241 253 247 242 259 265 259 254 239 222 221 225 231 224 212 207 204 202 208 212 205 199 204 206 209
127 136 139 149 151 155 147 155 168 174 204 252 258 253 242 250 240 222 283 285 272 250 246 270 279 270 257 244 239 225 215 213 210 201 198 204 206 208 207 201 196 196 203 214
114 125 138 133 112 109 119 227 218 213 228 265 270 251 220 269 319 295 245 287 324 307 278 291 303 296 267 293 267 129 111 124 181 183 179 192 203 191 185 186 188 194 206 211
126 126 120 115 120 138 174 194 87 347 319 322 321 326 320 183 204 280 21 23 4 7 357 346 343 339 14 45 61 63 75 307 279 133 112 99 255 165 162 157 157 169 186 203
119 124 133 140 148 154 146 129 143 309 9 5 351 353 353 349 56 74 57 20 15 26 15 354 356 360 11 36 42 34 16 346 347 11 343 279 250 221 203 202 193 197 204 209
110 109 110 93 74 99 110 111 111 50 60 86 40 8 16 36 52 50 32 26 32 29 12 5 19 26 20 24 25 16 10 358 2 21 8 324 277 242 213 202 216 218 216 214
Height
1464 1461 1461 1464 1463 1463 1470 1476 1485 1484 1482 1477 1473 1473 1476 1478 1481 1483 1486 1490 1493 1495 1497 1500 1502 1504 1506 1507 1509 1511 1512 1513 1514 1516 1516 1517 1517 1518 1519 1519 1519 1519 1520 1520
1465 1459 1460 1463 1461 1460 1463 1466 1470 1473 1477 1468 1470 1473 1476 1478 1479 1482 1485 1487 1491 1494 1496 1498 1500 1502 1504 1505 1507 1509 1510 1511 1512 1513 1514 1514 1515 1516 1516 1517 1517 1517 1517 1518
1477 1465 1464 1475 1464 1463 1464 1463 1466 1474 1472 1468 1471 1473 1475 1477 1479 1481 1484 1487 1490 1492 1495 1497 1499 1500 1502 1503 1505 1507 1508 1509 1510 1511 1512 1512 1513 1513 1514 1514 1515 1515 1515 1515
1479 1475 1488 1475 1457 1456 1460 1462 1460 1461 1463 1465 1468 1471 1473 1475 1477 1480 1484 1486 1489 1491 1494 1496 1498 1499 1501 1502 1503 1505 1506 1507 1507 1508 1509 1510 1510 1511 1511 1511 1512 1512 1513 1513
1485 1487 1481 1468 1459 1458 1462 1468 1462 1461 1462 1465 1468 1473 1477 1477 1478 1480 1483 1485 1488 1490 1492 1494 1496 1498 1499 1500 1502 1503 1504 1505 1505 1505 1507 1507 1507 1508 1508 1509 1509 1510 1510 1510
1481 1486 1488 1473 1456 1453 1458 1473 1463 1461 1463 1466 1468 1477 1478 1477 1478 1480 1482 1484 1486 1488 1490 1493 1495 1496 1497 1498 1499 1500 1502 1502 1503 1504 1504 1504 1505 1505 1506 1506 1507 1507 1507 1506
1479 1483 1477 1462 1454 1454 1474 1475 1464 1462 1462 1464 1466 1470 1473 1475 1477 1479 1481 1483 1485 1487 1488 1490 1493 1494 1495 1496 1497 1498 1499 1500 1501 1501 1501 1502 1502 1502 1503 1503 1504 1504 1504 1503
1479 1484 1481 1459 1456 1461 1465 1460 1461 1461 1462 1463 1465 1468 1471 1474 1476 1478 1480 1482 1484 1485 1487 1489 1490 1492 1493 1494 1495 1495 1496 1497 1498 1498 1499 1499 1499 1499 1500 1500 1500 1500 1500 1500
1472 1474 1463 1458 1457 1458 1458 1459 1460 1461 1464 1465 1466 1468 1470 1473 1475 1477 1479 1481 1482 1484 1485 1487 1489 1489 1490 1491 1493 1493 1494 1494 1495 1495 1495 1496 1496 1495 1496 1497 1496 1496 1496 1496
1467 1465 1461 1459 1458 1458 1459 1460 1461 1462 1464 1465 1466 1468 1470 1472 1475 1477 1478 1480 1481 1482 1484 1485 1486 1488 1488 1489 1490 1491 1491 1491 1492 1492 1492 1492 1493 1492 1492 1492 1492 1492 1492 1492
1468 1465 1461 1461 1461 1460 1460 1461 1462 1463 1464 1465 1466 1468 1470 1471 1473 1475 1477 1479 1480 1481 1482 1483 1484 1485 1487 1487 1488 1488 1489 1489 1489 1489 1490 1490 1489 1489 1489 1489 1489 1489 1488 1488
1470 1465 1465 1465 1463 1462 1460 1461 1462 1463 1465 1466 1467 1467 1469 1470 1471 1474 1476 1477 1479 1480 1481 1481 1482 1483 1484 1485 1485 1486 1486 1486 1486 1486 1486 1485 1485 1486 1486 1486 1486 1485 1485 1485
1462 1462 1463 1463 1463 1462 1462 1462 1462 1463 1464 1465 1467 1468 1470 1470 1471 1473 1474 1475 1477 1478 1479 1479 1480 1481 1481 1482 1482 1482 1482 1482 1482 1482 1482 1482 1482 1482 1482 1482 1482 1481 1481 1481
1461 1462 1463 1462 1462 1461 1462 1463 1463 1463 1464 1465 1467 1468 1470 1470 1471 1472 1472 1473 1475 1476 1476 1477 1477 1478 1478 1479 1479 1479 1479 1479 1479 1479 1478 1478 1478 1478 1478 1477 1477 1477 1477 1477
1460 1461 1462 1462 1461 1461 1462 1462 1462 1463 1464 1465 1466 1468 1469 1470 1470 1471 1471 1472 1473 1473 1473 1474 1474 1474 1475 1475 1475 1475 1475 1475 1475 1475 1475 1474 1474 1474 1474 1474 1473 1473 1472 1472
1459 1460 1460 1461 1461 1461 1461 1461 1462 1463 1463 1464 1465 1467 1468 1469 1469 1470 1470 1470 1470 1470 1471 1471 1470 1470 1471 1471 1471 1471 1471 1471 1471 1471 1471 1471 1470 1470 1470 1469 1469 1469 1468 1468
1457 1458 1460 1460 1460 1461 1461 1461 1462 1463 1464 1464 1464 1465 1466 1467 1467 1468 1469 1469 1468 1468 1468 1468 1467 1467 1467 1467 1467 1467 1467 1467 1467 1467 1467 1467 1466 1466 1466 1465 1465 1464 1464 1464
1456 1456 1458 1459 1459 1460 1460 1461 1461 1462 1463 1463 1464 1465 1465 1465 1465 1465 1465 1465 1464 1464 1465 1465 1465 1464 1464 1463 1463 1463 1463 1463 1463 1463 1463 1463 1462 1462 1462 1461 1461 1460 1460 1460
1455 1456 1457 1458 1458 1459 1460 1460 1460 1461 1461 1462 1463 1463 1463 1463 1463 1463 1462 1462 1461 1461 1462 1462 1461 1460 1460 1460 1460 1459 1459 1459 1459 1459 1459 1458 1458 1458 1458 1457 1457 1457 1456 1456
1454 1455 1456 1456 1457 1458 1459 1459 1460 1460 1460 1461 1462 1462 1461 1462 1462 1461 1460 1459 1459 1458 1459 1458 1458 1457 1456 1456 1456 1456 1456 1456 1456 1455 1455 1455 1454 1454 1454 1454 1453 1453 1453 1452
1452 1453 1454 1455 1456 1456 1457 1457 1458 1459 1459 1459 1460 1460 1459 1459 1459 1458 1457 1457 1456 1456 1456 1455 1454 1454 1453 1453 1453 1452 1452 1452 1452 1452 1451 1451 1451 1451 1450 1450 1450 1449 1449 1448
1450 1451 1452 1453 1454 1454 1455 1456 1457 1457 1457 1458 1458 1458 1458 1457 1457 1456 1455 1454 1454 1453 1453 1452 1451 1451 1450 1450 1450 1449 1449 1449 1449 1449 1449 1448 1448 1447 1447 1446 1446 1447 1446 1445
1448 1449 1451 1452 1452 1453 1454 1454 1455 1455 1456 1456 1456 1455 1455 1455 1454 1453 1452 1452 1452 1451 1450 1450 1449 1449 1449 1448 1447 1447 1446 1446 1446 1446 1446 1445 1445 1444 1444 1444 1444 1444 1443 1443
1447 1448 1450 1451 1451 1452 1452 1453 1453 1454 1454 1454 1454 1454 1453 1452 1452 1452 1451 1450 1450 1450 1449 1449 1448 1447 1446 1446 1446 1445 1445 1444 1444 1444 1443 1443 1443 1442 1442 1442 1441 1441 1440 1440
1446 1447 1449 1449 1450 1451 1452 1452 1453 1453 1453 1453 1452 1452 1451 1451 1451 1450 1450 1450 1449 1449 1448 1447 1446 1445 1445 1444 1443 1443 1443 1442 1442 1441 1441 1441 1440 1440 1439 1439 1438 1438 1437 1436
1446 1448 1449 1450 1451 1451 1452 1452 1452 1452 1452 1451 1451 1451 1450 1450 1450 1450 1450 1449 1449 1448 1447 1446 1445 1444 1444 1443 1442 1442 1441 1440 1439 1439 1439 1438 1438 1437 1436 1436 1435 1434 1433 1432
1447 1449 1449 1450 1451 1452 1452 1452 1452 1452 1451 1451 1451 1451 1450 1450 1450 1450 1449 1449 1448 1447 1446 1446 1445 1444 1443 1442 1441 1440 1440 1439 1438 1437 1436 1435 1435 1434 1433 1432 1431 1430 1429 1428